User: anonymous   Login
Location: Vancouver
(49.2500°N, 123.1330°W)
Time: 04:54:54
(UTC-07:00)
Language:

Cosmos 676 Rocket - Orbit

View from above orbital plane
View from above orbital plane
View from above satellite
View from above satellite

Ground track
Ground track

The orbit data is extracted from the following two-line orbital elements,

1 07434U 74071B   16238.75760702  .00000097  00000-0  41772-4 0  9992
2 07434  74.0469  36.5487 0020480  17.5815 342.6042 14.36584847194289
Epoch (UTC): 25 August 2016 18:10:57
Eccentricity: 0.0020480
inclination: 74.0469°
perigee height: 755 km
apogee height: 784 km
right ascension of ascending node: 36.5487°
argument of perigee: 17.5815°
revolutions per day: 14.36584847
mean anomaly at epoch: 342.6042°
orbit number at epoch: 19428

The dashed part of the orbit path shows where the satellite is in the earth's shadow,  

DLR